Pueblo, CO

1:41 AM MST on December 14, 2017 (GMT -0700)
Pueblo Memorial

Weather History for KPUB - April, 2014

Change the Weather History Date:

Saturday, April 19, 2014

  Actual Average Record
Temperature  
Mean Temperature 61 °F 52 °F  
Max Temperature 78 °F 68 °F 86 °F (1960)
Min Temperature 44 °F 35 °F 20 °F (2013)
Degree Days  
Heating Degree Days 4 14  
Month to date heating degree days 282 308  
Since 1 July heating degree days 5159 5313  
Cooling Degree Days 0 0  
Month to date cooling degree days 2 0  
Year to date cooling degree days 2 0  
Growing Degree Days 11 (Base 50)    
Moisture  
Dew Point 35 °F    
Average Humidity 45    
Maximum Humidity 71    
Minimum Humidity 19    
Precipitation  
Precipitation 0.00 in 0.05 in 1.59 in (2003)
Month to date precipitation 1.09 0.80  
Year to date precipitation 2.58 2.38  
Snow  
Snow 0.00 in 0.10 in 4.00 in (1892)
Month to date snowfall 8.3 2.7  
Since 1 July snowfall 29.3 30.2  
Snow Depth 0.00 in    
Sea Level Pressure  
Sea Level Pressure 29.85 in    
Wind  
Wind Speed 12 mph (NE)    
Max Wind Speed 25 mph    
Max Gust Speed 30 mph    
Visibility 10 miles    
Events      
T = Trace of Precipitation, MM = Missing Value Source: NWS Daily Summary

Daily Weather History Graph

Daily Weather History Graph

Search for Another Location

Airport or City:

Trip Planner

Search our weather history database for the weather conditions in past years. The results will help you decide how hot, cold, wet, or windy it might be!

Date:

Astronomy

Apr. 19, 2014 Rise Set
Actual Time 6:16 AM MDT 7:38 PM MDT
Civil Twilight 5:49 AM MDT 8:05 PM MDT
Nautical Twilight 5:16 AM MDT 8:38 PM MDT
Astronomical Twilight 4:41 AM MDT 9:13 PM MDT
Moon No Moon Rise 9:39 AM MDT (4/19)
Length of Visible Light 14h 16m
Length of Day
13h 21m
Waning Gibbous, 78% of the Moon is Illuminated
Apr 19
Waning Gibbous
Apr 22
Last Quarter
Apr 29
New
May 6
First Quarter
May 14
Full

Hourly Weather History & Observations

Time (MDT) Temp. Dew Point Humidity Pressure Visibility Wind Dir Wind Speed Gust Speed Precip Events Conditions
12:53 AM 57.0 °F 36.0 °F 45% 29.76 in 10.0 mi SW 9.2 mph - N/A   Clear
1:53 AM 55.9 °F 37.0 °F 49% 29.75 in 10.0 mi SW 3.5 mph - N/A   Clear
2:53 AM 50.0 °F 37.4 °F 62% 29.90 in 10.0 mi NE 4.6 mph - N/A   Clear
3:53 AM 48.9 °F 37.9 °F 66% 29.76 in 10.0 mi North 5.8 mph - N/A   Clear
4:53 AM 46.9 °F 37.9 °F 71% 29.79 in 10.0 mi Calm Calm - N/A   Clear
5:53 AM 46.4 °F 37.4 °F 71% 29.94 in 10.0 mi Calm Calm - N/A   Clear
6:53 AM 48.9 °F 39.0 °F 69% 29.83 in 10.0 mi Variable 3.5 mph - N/A   Clear
7:53 AM 53.1 °F 41.0 °F 64% 29.83 in 10.0 mi WSW 4.6 mph - N/A   Clear
8:53 AM 57.9 °F 39.0 °F 49% 29.87 in 10.0 mi ENE 12.7 mph - N/A   Clear
9:53 AM 66.9 °F 30.9 °F 26% 29.86 in 10.0 mi East 19.6 mph - N/A   Partly Cloudy
10:01 AM 68.0 °F 32.0 °F 26% 30.00 in 10.0 mi East 17.3 mph - N/A   Partly Cloudy
10:53 AM 69.1 °F 30.9 °F 24% 29.87 in 10.0 mi NE 15.0 mph 24.2 mph N/A   Clear
11:53 AM 72.0 °F 30.9 °F 22% 29.85 in 10.0 mi ESE 16.1 mph 19.6 mph N/A   Partly Cloudy
12:53 PM 73.9 °F 30.9 °F 21% 29.83 in 10.0 mi East 15.0 mph 25.3 mph N/A   Partly Cloudy
1:53 PM 73.9 °F 30.9 °F 21% 29.83 in 10.0 mi ENE 9.2 mph 20.7 mph N/A   Partly Cloudy
2:53 PM 75.0 °F 30.9 °F 20% 29.81 in 10.0 mi ENE 9.2 mph - N/A   Mostly Cloudy
3:34 PM 75.0 °F 34.0 °F 22% 29.94 in 10.0 mi ENE 17.3 mph - N/A   Overcast
3:53 PM 77.0 °F 34.0 °F 21% 29.80 in 10.0 mi East 21.9 mph 27.6 mph N/A   Mostly Cloudy
4:53 PM 73.9 °F 35.1 °F 24% 29.80 in 10.0 mi East 25.3 mph - N/A   Mostly Cloudy
5:53 PM 72.0 °F 36.0 °F 27% 29.82 in 10.0 mi ENE 20.7 mph - N/A   Mostly Cloudy
6:53 PM 69.1 °F 37.0 °F 31% 29.83 in 10.0 mi NE 17.3 mph - N/A   Mostly Cloudy
7:53 PM 66.0 °F 36.0 °F 33% 29.85 in 10.0 mi NE 15.0 mph - N/A   Mostly Cloudy
8:53 PM 64.0 °F 37.0 °F 37% 29.89 in 10.0 mi NE 8.1 mph - N/A   Overcast
9:53 PM 61.0 °F 37.0 °F 41% 29.90 in 10.0 mi North 11.5 mph - N/A   Overcast
10:53 PM 60.1 °F 37.9 °F 44% 29.91 in 10.0 mi North 12.7 mph - N/A   Overcast
11:53 PM 59.0 °F 37.9 °F 46% 29.89 in 10.0 mi North 12.7 mph - N/A   Clear